Schneifelwetter: Wetterstation Hallschlag, 537 m . NN
Wetterdaten: Sonntag, 26.10.2008
Datum Zeit Temp. A. Temp. 2 Feuchte A. Luftdruck Regen Wind Richtung Richtung Sonnenschein Helligkeit T Regen Taupunkt Windchill
26.10.2008 00:14 5,7 C 5,2 C 97 % 1026 hPa 0,0 l/m 12,0 km/h (2 Bft) W-SW22.5 250 0 min 0 lux 0,00 min 5,3 C 1,6 C
26.10.2008 00:29 5,5 C 4,8 C 97 % 1026 hPa 0,0 l/m 8,1 km/h (2 Bft) SW22.5 225 0 min 0 lux 0,00 min 5,1 C 4,0 C
26.10.2008 00:45 5,6 C 4,9 C 98 % 1026 hPa 0,0 l/m 11,0 km/h (2 Bft) W-SW45 245 0 min 0 lux 0,00 min 5,3 C 2,1 C
26.10.2008 01:00 5,9 C 5,5 C 99 % 1026 hPa 0,0 l/m 14,5 km/h (3 Bft) W22.5 260 0 min 0 lux 0,00 min 5,8 C 0,4 C
26.10.2008 01:15 6,2 C 5,9 C 99 % 1026 hPa 0,0 l/m 15,2 km/h (3 Bft) W22.5 260 0 min 0 lux 0,00 min 6,1 C 0,4 C
26.10.2008 01:30 6,6 C 6,3 C 99 % 1026 hPa 0,0 l/m 19,3 km/h (3 Bft) W22.5 260 0 min 0 lux 0,00 min 6,5 C -0,8 C
26.10.2008 01:45 6,7 C 6,3 C 99 % 1025 hPa 0,0 l/m 16,5 km/h (3 Bft) SW22.5 215 0 min 0 lux 0,00 min 6,6 C 0,4 C
26.10.2008 02:00 6,8 C 6,3 C 99 % 1025 hPa 0,0 l/m 17,0 km/h (3 Bft) SW45 235 0 min 0 lux 0,00 min 6,7 C 0,3 C
26.10.2008 02:15 7,0 C 6,5 C 99 % 1025 hPa 0,0 l/m 21,1 km/h (4 Bft) SW22.5 235 0 min 0 lux 0,00 min 6,9 C -1,0 C
26.10.2008 02:30 6,7 C 6,4 C 99 % 1025 hPa 0,0 l/m 15,8 km/h (3 Bft) W22.5 260 0 min 0 lux 0,00 min 6,6 C 0,8 C
26.10.2008 02:45 6,6 C 6,3 C 99 % 1025 hPa 0,0 l/m 19,0 km/h (3 Bft) W22.5 260 0 min 0 lux 0,00 min 6,5 C -0,7 C
26.10.2008 02:00 6,5 C 6,3 C 99 % 1025 hPa 0,0 l/m 15,9 km/h (3 Bft) SW45 230 0 min 0 lux 0,00 min 6,4 C 0,5 C
26.10.2008 02:15 6,4 C 6,3 C 99 % 1025 hPa 0,0 l/m 16,6 km/h (3 Bft) W-SW45 255 0 min 0 lux 0,00 min 6,3 C 0,0 C
26.10.2008 02:30 6,4 C 6,2 C 99 % 1024 hPa 0,0 l/m 22,8 km/h (4 Bft) W22.5 260 0 min 0 lux 0,00 min 6,3 C -2,4 C
26.10.2008 02:45 6,3 C 6,2 C 99 % 1025 hPa 0,0 l/m 21,3 km/h (4 Bft) W22.5 270 0 min 0 lux 0,00 min 6,2 C -2,0 C
26.10.2008 03:00 6,6 C 6,5 C 99 % 1024 hPa 0,0 l/m 26,1 km/h (4 Bft) SW45 230 0 min 0 lux 0,00 min 6,5 C -3,1 C
26.10.2008 03:15 7,1 C 6,9 C 99 % 1024 hPa 0,0 l/m 21,9 km/h (4 Bft) W-SW45 240 0 min 0 lux 0,00 min 7,0 C -1,1 C
26.10.2008 03:30 7,2 C 7,0 C 99 % 1024 hPa 0,0 l/m 27,0 km/h (4 Bft) W-SW22.5 255 0 min 0 lux 0,00 min 7,1 C -2,5 C
26.10.2008 03:45 7,4 C 7,2 C 99 % 1023 hPa 0,0 l/m 26,4 km/h (4 Bft) W-SW45 245 0 min 0 lux 0,00 min 7,3 C -2,1 C
26.10.2008 04:00 7,5 C 7,2 C 99 % 1023 hPa 0,0 l/m 27,7 km/h (4 Bft) W-SW22.5 240 0 min 0 lux 0,00 min 7,4 C -2,3 C
26.10.2008 04:15 7,5 C 7,1 C 99 % 1023 hPa 0,0 l/m 26,0 km/h (4 Bft) W-SW45 240 0 min 0 lux 0,00 min 7,4 C -1,8 C
26.10.2008 04:30 7,3 C 7,0 C 99 % 1023 hPa 0,0 l/m 25,0 km/h (4 Bft) W-SW45 250 0 min 0 lux 0,00 min 7,2 C -1,8 C
26.10.2008 04:45 7,2 C 6,8 C 99 % 1022 hPa 0,0 l/m 26,3 km/h (4 Bft) W-SW67.5 240 0 min 0 lux 0,00 min 7,1 C -2,3 C
26.10.2008 05:00 7,1 C 6,6 C 98 % 1022 hPa 0,0 l/m 25,0 km/h (4 Bft) SW45 235 0 min 0 lux 0,00 min 6,8 C -2,1 C
26.10.2008 05:15 6,9 C 6,3 C 97 % 1022 hPa 0,0 l/m 32,1 km/h (5 Bft) W-SW45 240 0 min 0 lux 0,00 min 6,5 C -4,2 C
26.10.2008 05:30 6,6 C 6,1 C 97 % 1022 hPa 0,0 l/m 21,3 km/h (4 Bft) W-SW45 250 0 min 0 lux 0,00 min 6,2 C -1,6 C
26.10.2008 05:45 6,3 C 5,7 C 97 % 1022 hPa 0,0 l/m 23,1 km/h (4 Bft) W-SW45 255 0 min 0 lux 0,00 min 5,9 C -2,6 C
26.10.2008 06:00 6,0 C 5,5 C 97 % 1022 hPa 0,0 l/m 18,2 km/h (3 Bft) SW45 230 0 min 0 lux 0,00 min 5,6 C -1,2 C
26.10.2008 06:15 5,8 C 5,3 C 97 % 1022 hPa 0,0 l/m 17,0 km/h (3 Bft) SW45 230 0 min 0 lux 0,00 min 5,4 C -0,9 C
26.10.2008 06:30 5,6 C 5,2 C 97 % 1022 hPa 0,0 l/m 20,5 km/h (4 Bft) SW45 225 0 min 0 lux 0,00 min 5,2 C -2,6 C
26.10.2008 06:45 5,6 C 5,2 C 97 % 1022 hPa 0,0 l/m 24,7 km/h (4 Bft) W45 260 0 min 0 lux 0,00 min 5,2 C -4,0 C
26.10.2008 07:00 5,6 C 5,0 C 97 % 1022 hPa 0,0 l/m 24,3 km/h (4 Bft) W-SW45 255 0 min 73 lux 0,00 min 5,2 C -3,9 C
26.10.2008 07:15 5,4 C 5,0 C 97 % 1022 hPa 0,0 l/m 21,5 km/h (4 Bft) W-SW45 240 0 min 450 lux 0,00 min 5,0 C -3,2 C
26.10.2008 07:30 5,6 C 5,3 C 97 % 1022 hPa 0,0 l/m 29,5 km/h (5 Bft) SW45 235 0 min 2,19 klux 0,00 min 5,2 C -5,4 C
26.10.2008 07:45 5,9 C 5,6 C 97 % 1022 hPa 0,0 l/m 23,2 km/h (4 Bft) W-SW45 250 0 min 3,93 klux 0,00 min 5,5 C -3,1 C
26.10.2008 08:00 6,3 C 5,9 C 96 % 1022 hPa 0,0 l/m 29,1 km/h (5 Bft) W-SW45 255 0 min 6,59 klux 0,00 min 5,7 C -4,3 C
26.10.2008 08:15 6,5 C 6,1 C 96 % 1022 hPa 0,0 l/m 21,3 km/h (4 Bft) W-SW45 240 0 min 10,3 klux 0,00 min 5,9 C -1,7 C
26.10.2008 08:23 6,8 C 6,6 C 96 % 1021 hPa 0,0 l/m 29,3 km/h (5 Bft) W-SW45 250 0 min 16,4 klux 0,00 min 6,2 C -3,7 C
26.10.2008 08:44 7,2 C 6,9 C 95 % 1022 hPa 0,0 l/m 35,3 km/h (5 Bft) W-SW45 245 0 min 10,6 klux 0,00 min 6,5 C -4,4 C
26.10.2008 09:00 7,3 C 7,3 C 94 % 1022 hPa 0,0 l/m 30,2 km/h (5 Bft) W-SW45 245 0 min 13,9 klux 0,00 min 6,4 C -3,2 C
26.10.2008 09:15 7,7 C 7,6 C 93 % 1022 hPa 0,0 l/m 23,6 km/h (4 Bft) W-SW45 250 0 min 18,7 klux 0,00 min 6,6 C -0,9 C
26.10.2008 09:30 8,3 C 8,3 C 92 % 1021 hPa 0,0 l/m 31,1 km/h (5 Bft) W22.5 260 0 min 24,5 klux 0,00 min 7,1 C -2,0 C
26.10.2008 09:45 8,5 C 8,7 C 90 % 1021 hPa 0,0 l/m 36,8 km/h (5 Bft) W-SW45 250 0 min 29,4 klux 0,00 min 7,0 C -2,8 C
26.10.2008 09:59 8,9 C 9,3 C 89 % 1020 hPa 0,0 l/m 39,6 km/h (6 Bft) W-SW45 240 0 min 31,9 klux 0,00 min 7,2 C -2,7 C
26.10.2008 10:14 9,0 C 9,6 C 86 % 1020 hPa 0,0 l/m 33,9 km/h (5 Bft) SW45 230 0 min 32,8 klux 0,00 min 6,8 C -1,6 C
26.10.2008 10:29 9,4 C 10,3 C 84 % 1020 hPa 0,0 l/m 43,0 km/h (6 Bft) SW45 235 0 min 34,7 klux 0,00 min 6,8 C -2,4 C
26.10.2008 10:44 9,8 C 10,7 C 82 % 1020 hPa 0,0 l/m 38,7 km/h (5 Bft) SW45 230 0 min 39,6 klux 0,00 min 6,9 C -1,2 C
26.10.2008 11:00 10,0 C 10,9 C 82 % 1020 hPa 0,0 l/m 31,8 km/h (5 Bft) SW45 230 0 min 32,7 klux 0,00 min 7,1 C 0,3 C
26.10.2008 11:15 10,2 C 11,2 C 81 % 1020 hPa 0,0 l/m 42,6 km/h (6 Bft) W-SW45 240 0 min 38,0 klux 0,00 min 7,1 C -1,2 C
26.10.2008 11:30 10,3 C 11,2 C 79 % 1019 hPa 0,0 l/m 37,9 km/h (5 Bft) SW67.5 225 0 min 29,9 klux 0,00 min 6,8 C -0,3 C
26.10.2008 11:44 10,4 C 11,5 C 79 % 1019 hPa 0,0 l/m 34,4 km/h (5 Bft) W-SW45 240 0 min 32,1 klux 0,00 min 6,9 C 0,4 C
26.10.2008 11:59 11,0 C 12,6 C 77 % 1019 hPa 0,0 l/m 43,3 km/h (6 Bft) W-SW67.5 245 0 min 50,3 klux 0,00 min 7,1 C -0,1 C
26.10.2008 12:14 11,5 C 13,1 C 75 % 1019 hPa 0,0 l/m 38,4 km/h (5 Bft) W-SW45 240 15 min 58,5 klux 0,00 min 7,2 C 1,3 C
26.10.2008 12:29 11,6 C 12,6 C 74 % 1019 hPa 0,0 l/m 44,0 km/h (6 Bft) W-SW45 250 0 min 37,7 klux 0,00 min 7,1 C 0,8 C
26.10.2008 12:45 11,2 C 12,1 C 73 % 1018 hPa 0,0 l/m 51,4 km/h (7 Bft) W45 260 0 min 28,3 klux 0,00 min 6,5 C -0,6 C
26.10.2008 13:00 11,0 C 11,7 C 75 % 1018 hPa 0,0 l/m 41,9 km/h (6 Bft) W-SW22.5 255 0 min 27,6 klux 0,00 min 6,7 C 0,1 C
26.10.2008 13:15 11,0 C 11,6 C 76 % 1018 hPa 0,0 l/m 39,1 km/h (6 Bft) W22.5 260 0 min 33,4 klux 0,00 min 6,9 C 0,5 C
26.10.2008 13:29 11,3 C 12,2 C 75 % 1018 hPa 0,0 l/m 41,3 km/h (6 Bft) W-SW45 250 0 min 34,6 klux 0,00 min 7,0 C 0,6 C
26.10.2008 13:44 11,4 C 12,3 C 75 % 1018 hPa 0,0 l/m 39,3 km/h (6 Bft) W-SW45 255 0 min 32,3 klux 0,00 min 7,1 C 1,1 C
26.10.2008 13:59 11,7 C 12,8 C 73 % 1018 hPa 0,0 l/m 33,0 km/h (5 Bft) W-SW45 245 0 min 34,4 klux 0,00 min 7,0 C 2,5 C
26.10.2008 14:14 11,7 C 12,6 C 72 % 1017 hPa 0,0 l/m 41,2 km/h (6 Bft) W-SW67.5 255 0 min 31,6 klux 0,00 min 6,8 C 1,3 C
26.10.2008 14:30 11,6 C 12,1 C 72 % 1017 hPa 0,0 l/m 37,4 km/h (5 Bft) W22.5 260 0 min 16,2 klux 0,00 min 6,7 C 1,6 C
26.10.2008 14:45 11,6 C 12,0 C 72 % 1017 hPa 0,0 l/m 35,6 km/h (5 Bft) W22.5 260 0 min 18,7 klux 0,00 min 6,7 C 1,9 C
26.10.2008 15:00 11,5 C 11,9 C 70 % 1017 hPa 0,0 l/m 32,4 km/h (5 Bft) W45 260 0 min 13,6 klux 0,00 min 6,2 C 2,3 C
26.10.2008 15:15 11,4 C 11,6 C 70 % 1017 hPa 0,0 l/m 37,2 km/h (5 Bft) W45 260 0 min 12,9 klux 0,00 min 6,1 C 1,4 C
26.10.2008 15:29 11,2 C 11,5 C 72 % 1017 hPa 0,0 l/m 32,6 km/h (5 Bft) W-SW45 250 0 min 8,26 klux 0,00 min 6,3 C 1,8 C
26.10.2008 15:44 10,8 C 11,1 C 72 % 1017 hPa 0,0 l/m 27,0 km/h (4 Bft) W45 260 0 min 4,18 klux 0,00 min 6,0 C 2,4 C
26.10.2008 15:59 10,6 C 10,9 C 72 % 1016 hPa 0,0 l/m 27,8 km/h (4 Bft) SW45 230 0 min 3,84 klux 0,00 min 5,8 C 2,0 C
26.10.2008 16:14 10,4 C 10,7 C 72 % 1017 hPa 0,0 l/m 30,3 km/h (5 Bft) W-SW45 250 0 min 2,73 klux 0,00 min 5,6 C 1,2 C
26.10.2008 16:30 10,4 C 10,6 C 72 % 1016 hPa 0,0 l/m 30,4 km/h (5 Bft) W-SW45 250 0 min 2,76 klux 0,00 min 5,6 C 1,1 C
26.10.2008 16:45 10,2 C 10,1 C 75 % 1016 hPa 0,0 l/m 30,1 km/h (5 Bft) SW22.5 235 0 min 2,10 klux 0,00 min 6,0 C 0,9 C
26.10.2008 17:00 9,7 C 9,4 C 77 % 1016 hPa 0,0 l/m 34,0 km/h (5 Bft) W-SW45 240 0 min 1,03 klux 0,00 min 5,9 C -0,6 C
26.10.2008 17:14 9,5 C 9,1 C 79 % 1016 hPa 0,0 l/m 32,7 km/h (5 Bft) SW45 220 0 min 627 lux 0,00 min 6,0 C -0,6 C
26.10.2008 17:29 9,4 C 9,1 C 79 % 1016 hPa 0,0 l/m 28,5 km/h (4 Bft) SW67.5 235 0 min 101 lux 0,00 min 5,9 C 0,1 C
26.10.2008 17:44 9,3 C 9,3 C 80 % 1016 hPa 0,0 l/m 32,1 km/h (5 Bft) W-SW67.5 255 0 min 30 lux 0,00 min 6,0 C -0,8 C
26.10.2008 17:59 9,2 C 9,3 C 81 % 1016 hPa 0,0 l/m 27,6 km/h (4 Bft) W-SW45 255 0 min 3 lux 0,00 min 6,1 C 0,1 C
26.10.2008 18:15 9,0 C 8,7 C 84 % 1016 hPa 0,0 l/m 19,0 km/h (3 Bft) SW45 230 0 min 0 lux 0,00 min 6,4 C 2,3 C
26.10.2008 18:30 8,6 C 8,3 C 86 % 1016 hPa 0,0 l/m 18,6 km/h (3 Bft) SW45 230 0 min 0 lux 0,00 min 6,4 C 2,0 C
26.10.2008 18:45 8,7 C 8,3 C 86 % 1016 hPa 0,0 l/m 26,3 km/h (4 Bft) W-SW67.5 240 0 min 0 lux 0,00 min 6,5 C -0,3 C
26.10.2008 18:59 8,8 C 8,4 C 87 % 1016 hPa 0,0 l/m 21,9 km/h (4 Bft) SW45 230 0 min 0 lux 0,00 min 6,8 C 1,1 C
26.10.2008 19:14 8,8 C 8,4 C 87 % 1015 hPa 0,0 l/m 23,1 km/h (4 Bft) SW45 230 0 min 0 lux 0,00 min 6,8 C 0,7 C
26.10.2008 19:29 8,8 C 8,5 C 88 % 1015 hPa 0,0 l/m 24,2 km/h (4 Bft) SW45 230 0 min 0 lux 0,00 min 6,9 C 0,4 C
26.10.2008 19:44 8,8 C 8,6 C 89 % 1015 hPa 0,0 l/m 21,0 km/h (4 Bft) SW45 230 0 min 0 lux 0,00 min 7,1 C 1,4 C
26.10.2008 20:00 8,8 C 8,5 C 90 % 1015 hPa 0,0 l/m 24,2 km/h (4 Bft) SW22.5 235 0 min 0 lux 0,00 min 7,3 C 0,4 C
26.10.2008 20:15 8,7 C 8,6 C 90 % 1015 hPa 0,0 l/m 21,0 km/h (4 Bft) SW45 225 0 min 0 lux 0,00 min 7,2 C 1,3 C
26.10.2008 20:30 8,8 C 8,7 C 90 % 1015 hPa 0,0 l/m 18,0 km/h (3 Bft) SW67.5 230 0 min 0 lux 0,00 min 7,3 C 2,5 C
26.10.2008 20:45 8,8 C 8,8 C 90 % 1014 hPa 0,0 l/m 19,8 km/h (3 Bft) W-SW45 250 0 min 0 lux 0,00 min 7,3 C 1,8 C
26.10.2008 20:59 8,9 C 8,9 C 90 % 1014 hPa 0,0 l/m 19,7 km/h (3 Bft) SW45 235 0 min 0 lux 0,00 min 7,4 C 2,0 C
26.10.2008 21:14 8,9 C 8,9 C 90 % 1014 hPa 0,0 l/m 22,6 km/h (4 Bft) W-SW45 240 0 min 0 lux 0,00 min 7,4 C 1,0 C
26.10.2008 21:29 8,8 C 8,8 C 91 % 1014 hPa 0,0 l/m 18,1 km/h (3 Bft) SW45 230 0 min 0 lux 0,00 min 7,4 C 2,4 C
26.10.2008 21:44 8,8 C 8,7 C 93 % 1014 hPa 0,0 l/m 21,6 km/h (4 Bft) SW45 235 0 min 0 lux 0,00 min 7,7 C 1,2 C
26.10.2008 22:00 8,8 C 8,7 C 93 % 1014 hPa 0,0 l/m 28,0 km/h (4 Bft) W-SW45 250 0 min 0 lux 0,00 min 7,7 C -0,6 C
26.10.2008 22:15 8,7 C 8,6 C 94 % 1014 hPa 0,0 l/m 21,0 km/h (4 Bft) SW22.5 230 0 min 0 lux 0,00 min 7,8 C 1,3 C
26.10.2008 22:30 8,7 C 8,6 C 95 % 1013 hPa 0,0 l/m 24,5 km/h (4 Bft) SW45 235 0 min 0 lux 0,00 min 7,9 C 0,2 C
26.10.2008 22:44 8,6 C 8,5 C 95 % 1013 hPa 0,3 l/m 21,9 km/h (4 Bft) SW45 225 0 min 0 lux 14,00 min 7,8 C 0,9 C
26.10.2008 22:59 8,5 C 8,5 C 96 % 1013 hPa 0,0 l/m 29,6 km/h (5 Bft) W-SW22.5 250 0 min 0 lux 0,00 min 7,9 C -1,4 C
26.10.2008 23:14 8,5 C 8,4 C 96 % 1012 hPa 0,3 l/m 22,3 km/h (4 Bft) SW45 235 0 min 0 lux 15,00 min 7,9 C 0,6 C
26.10.2008 23:29 8,4 C 8,4 C 96 % 1012 hPa 0,9 l/m 21,5 km/h (4 Bft) SW45 235 0 min 0 lux 15,00 min 7,8 C 0,7 C
26.10.2008 23:45 8,4 C 8,3 C 96 % 1012 hPa 0,6 l/m 35,3 km/h (5 Bft) W-SW22.5 255 0 min 0 lux 16,00 min 7,8 C -2,7 C
26.10.2008 23:53 8,3 C 8,2 C 97 % 1012 hPa 0,6 l/m 24,6 km/h (4 Bft) W-SW45 250 0 min 0 lux 8,00 min 7,9 C -0,4 C
_ Min-Zeit 07:15 00:29 15:00 23:14 - 00:29 - - - - - 07:15 07:30
Minimum _ 5,4 C 4,8 C 70 % 1012 hPa - 8,1 km/h (2 Bft) - - - - - 5,0 C -5,4 C
_ Max-Zeit 13:59 12:14 01:00 00:14 23:29 12:45 - - 12:14 12:14 23:45 22:30 00:29
Maximum _ 11,7 C 13,1 C 99 % 1026 hPa 0,9 l/m 51,4 km/h
W (7 Bft)
- - 15 min 58,5 klux 16,00 min 7,9 C 4,0 C
Durchschnitt _ 8,4 C 8,4 C 89 % 1019 hPa #2,7 l/m 27,1 km/h (4 Bft) W-SW - #15 min. 8,64 klux #1:08 h 6,6 C -0,4 C